Flag for Pakistan Weather past 2 weeks in Lahore, Pakistan

Now
59 °F

Fog.


Feels Like: 57 °F
Forecast: 53 / 67 °F
Wind: 12 mph from South

Location: Lahore Airport

Current Time: Mar 2, 2015 at 8:47:57 AM

Latest Report: Mar 2, 2015 at 7:55 AM


Visibility: 2 mi

Pressure: 29.83 "Hg

Humidity: 88%

Dew point: 55 °F

Location of LahoreLocation

Historic Weather in Lahore — Graph

°F

Lahore temperature yesterday

Maximum temperature yesterday: 61 °F (at 12:25 AM)
Minimum temperature yesterday: 55 °F (at 8:55 PM)
Average temperature yesterday: 58 °F

Past Weeks' High & Low Weather Summary

 TemperatureHumidityPressure
High82 °F (Feb 15, 2:25 PM)100% (Feb 16, 5:30 PM)30.09 "Hg (Feb 16, 5:30 PM)
Low48 °F (Feb 27, 6:25 AM)25% (Feb 26, 2:55 PM)29.68 "Hg (Feb 25, 4:55 AM)
Average64 °F69%29.92 "Hg
* Reported Feb 15 7:55 AM — Mar 2 6:55 AM, Lahore, Weather by CustomWeather, © 2015

Note: Actual official high and low records may vary slightly from our data, if they occured in-between our weather recording intervals... More about our weather records

Advertising

Lahore weather history for previous 24 hours

 ConditionsComfort  
Time TempWeatherWind HumidityBarometerVisibility
6:55 AM
Mon, Mar 2
55 °FSmoke.14 mph94%29.80 "Hg2 mi
6:25 AM55 °FPartly cloudy.7 mph94%29.77 "Hg2 mi
3:25 AM55 °FThunderstorms. Partly cloudy.9 mph94%29.74 "Hg2 mi
2:55 AM55 °FThunderstorms. Partly cloudy.9 mph94%29.74 "Hg2 mi
2:25 AM55 °FThunderstorms. Mostly cloudy.9 mph100%29.74 "Hg2 mi
1:55 AM55 °FThunderstorms. Mostly cloudy.9 mph100%29.77 "Hg2 mi
1:25 AM55 °FThunderstorms. Partly cloudy.14 mph100%29.77 "Hg2 mi
12:55 AM55 °FThunderstorms. Partly cloudy.14 mph100%29.77 "Hg2 mi
12:25 AM55 °FThunderstorms. Mostly cloudy.10 mph100%29.74 "Hg2 mi
11:55 PM
Sun, Mar 1
55 °FThunderstorms. Mostly cloudy.17 mph100%29.74 "Hg2 mi
11:25 PM55 °FThunderstorms. Mostly cloudy.23 mph100%29.71 "Hg2 mi
10:55 PM55 °FThunderstorms. Mostly cloudy.7 mph100%29.74 "Hg2 mi
10:25 PM55 °FThunderstorms. Mostly cloudy.21 mph100%29.80 "Hg2 mi
9:55 PM55 °FThunderstorms. Mostly cloudy.9 mph100%29.77 "Hg2 mi
9:25 PM55 °FThunderstorms. Mostly cloudy.9 mph100%29.80 "Hg2 mi
8:55 PM55 °FThunderstorms. Mostly cloudy.7 mph100%29.77 "Hg2 mi
8:25 PM57 °FThunderstorms. Mostly cloudy.9 mph88%29.80 "Hg2 mi
7:55 PM57 °FLight rain. Mostly cloudy.12 mph88%29.80 "Hg2 mi
7:30 PM57 °FLight rain. Mostly cloudy.9 mph88%29.80 "Hg2 mi
6:55 PM57 °FRain. Mostly cloudy.12 mph88%29.80 "Hg2 mi
6:25 PM57 °FRain. Mostly cloudy.13 mph88%29.80 "Hg2 mi
5:55 PM59 °FBroken clouds.12 mph82%29.80 "Hg2 mi
4:55 PM59 °FBroken clouds.13 mph82%29.77 "Hg2 mi
4:25 PM59 °FBroken clouds.8 mph82%29.77 "Hg2 mi
3:55 PM59 °FBroken clouds.7 mph82%29.77 "Hg2 mi
3:25 PM59 °FBroken clouds.8 mph88%29.77 "Hg2 mi
2:55 PM57 °FRain. More clouds than sun.10 mph94%29.80 "Hg2 mi
2:30 PM57 °FLight rain. More clouds than sun.10 mph94%29.80 "Hg1 mi
2:00 PM57 °FRain. More clouds than sun.9 mph94%29.83 "Hg1 mi
1:25 PM57 °FRain. More clouds than sun.12 mph88%29.89 "Hg2 mi
1:00 PM57 °FRain. More clouds than sun.9 mph88%29.89 "Hg2 mi
12:30 PM57 °FRain. More clouds than sun.7 mph82%29.89 "Hg2 mi
12:00 PM57 °FRain. More clouds than sun.No wind82%29.92 "Hg2 mi
11:30 AM57 °FRain. More clouds than sun.No wind82%29.92 "Hg2 mi
11:00 AM59 °FRain. More clouds than sun.7 mph77%29.92 "Hg2 mi
10:30 AM59 °FMore clouds than sun.7 mph77%29.89 "Hg2 mi
9:55 AM59 °FRain. More clouds than sun.6 mph72%29.89 "Hg2 mi
9:25 AM61 °FDrizzle. More clouds than sun.7 mph68%29.89 "Hg2 mi
8:55 AM61 °FBroken clouds.7 mph68%29.89 "Hg2 mi
8:25 AM61 °FBroken clouds.12 mph68%29.86 "Hg2 mi
Weather by CustomWeather, © 2015

See weather overviewHow to use our weather pages